{"data":{"norad_id":53004,"intl_designator":"2022-076U","name":"STARLINK-4253","alt_names":[],"object_type":"PAYLOAD","status":"ACTIVE","operator":null,"country":"US","launch_date":"2022-07-07","launch_site_code":"AFETR","launch_vehicle":null,"mission":null,"orbit_class":"UNKNOWN","rcs_meters":null,"size_class":null,"mass_kg":null,"dimensions":null,"purposes":["comms"],"wikipedia_slug":null,"has_3d_model":false,"image_url":null,"decayed_at":null,"tle_current":{"epoch":"2026-05-25T04:27:18.328320Z","epoch_age_seconds":56064,"freshness":"FRESH","line1":"1 53004U 22076U   26145.18562880  .00000710  00000+0  62707-4 0  9998","line2":"2 53004  53.2134 110.7159 0001697  75.0139 285.1040 15.08857566214394","mean_motion":15.08857566,"eccentricity":0.0001697,"inclination_deg":53.2134,"raan_deg":110.7159,"arg_perigee_deg":75.0139,"mean_anomaly_deg":285.104,"bstar":6.2707e-5,"rev_number":21439,"period_min":95.436443601331,"perigee_km":538.51574205987,"apogee_km":540.86365244091,"semimajor_km":6917.8266972504,"source":"CELESTRAK","updated_at":"2026-05-25T13:38:17.276954Z"}}}